TimeMDT,TemperatureF,Dew PointF,Humidity,Sea Level PressureIn,VisibilityMPH,Wind Direction,Wind SpeedMPH,Gust SpeedMPH,PrecipitationIn,Events,Conditions,WindDirDegrees,DateUTC
12:10 AM,35.6,19.4,52,30.69,10.0,WSW,11.5,-,N/A,,Clear,240,2013-10-07 06:10:00
12:30 AM,33.8,21.2,60,30.68,10.0,SW,12.7,-,N/A,,Clear,220,2013-10-07 06:30:00
12:50 AM,33.8,23.0,65,30.67,10.0,SW,15.0,-,N/A,,Clear,230,2013-10-07 06:50:00
1:10 AM,33.8,23.0,65,30.67,10.0,WSW,17.3,-,N/A,,Clear,240,2013-10-07 07:10:00
1:30 AM,33.8,21.2,60,30.67,10.0,WSW,18.4,-,N/A,,Clear,250,2013-10-07 07:30:00
1:50 AM,33.8,23.0,65,30.67,10.0,SW,13.8,-,N/A,,Clear,230,2013-10-07 07:50:00
2:10 AM,33.8,23.0,65,30.67,10.0,WSW,18.4,-,N/A,,Clear,240,2013-10-07 08:10:00
2:30 AM,33.8,21.2,60,30.67,10.0,WSW,18.4,-,N/A,,Clear,250,2013-10-07 08:30:00
2:49 AM,33.8,21.2,60,30.66,10.0,WSW,17.3,-,N/A,,Clear,250,2013-10-07 08:49:00
3:10 AM,35.6,21.2,56,30.66,10.0,SW,16.1,-,N/A,,Clear,230,2013-10-07 09:10:00
3:30 AM,33.8,23.0,65,30.65,10.0,SW,17.3,-,N/A,,Clear,230,2013-10-07 09:30:00
3:50 AM,33.8,21.2,60,30.64,10.0,WSW,21.9,-,N/A,,Clear,250,2013-10-07 09:50:00
4:10 AM,33.8,21.2,60,30.65,10.0,WSW,19.6,-,N/A,,Clear,240,2013-10-07 10:10:00
4:30 AM,33.8,21.2,60,30.65,10.0,WSW,19.6,-,N/A,,Clear,240,2013-10-07 10:30:00
4:50 AM,33.8,21.2,60,30.64,10.0,WSW,19.6,26.5,N/A,,Clear,240,2013-10-07 10:50:00
5:09 AM,35.6,19.4,52,30.64,10.0,West,24.2,-,N/A,,Clear,260,2013-10-07 11:09:00
5:30 AM,35.6,19.4,52,30.64,10.0,WSW,24.2,-,N/A,,Clear,250,2013-10-07 11:30:00
5:50 AM,35.6,19.4,52,30.64,10.0,WSW,23.0,-,N/A,,Clear,250,2013-10-07 11:50:00
6:10 AM,35.6,19.4,52,30.64,10.0,WSW,23.0,-,N/A,,Clear,250,2013-10-07 12:10:00
6:30 AM,35.6,19.4,52,30.64,10.0,WSW,23.0,-,N/A,,Clear,250,2013-10-07 12:30:00
6:50 AM,35.6,19.4,52,30.64,10.0,WSW,20.7,-,N/A,,Clear,240,2013-10-07 12:50:00
7:09 AM,35.6,19.4,52,30.64,10.0,WSW,23.0,-,N/A,,Clear,240,2013-10-07 13:09:00
7:30 AM,35.6,19.4,52,30.64,10.0,WSW,21.9,-,N/A,,Clear,240,2013-10-07 13:30:00
7:50 AM,33.8,19.4,56,30.64,10.0,SW,20.7,-,N/A,,Clear,230,2013-10-07 13:50:00
8:09 AM,33.8,19.4,56,30.65,10.0,SW,19.6,-,N/A,,Clear,220,2013-10-07 14:09:00
8:29 AM,35.6,19.4,52,30.65,10.0,SW,20.7,-,N/A,,Clear,220,2013-10-07 14:29:00
8:49 AM,37.4,19.4,48,30.65,10.0,SW,21.9,25.3,N/A,,Clear,230,2013-10-07 14:49:00
9:10 AM,37.4,19.4,48,30.66,10.0,WSW,19.6,-,N/A,,Clear,240,2013-10-07 15:10:00
9:30 AM,39.2,19.4,45,30.66,10.0,SW,19.6,26.5,N/A,,Clear,230,2013-10-07 15:30:00
9:49 AM,41.0,19.4,42,30.66,10.0,SW,18.4,25.3,N/A,,Clear,230,2013-10-07 15:49:00
10:10 AM,41.0,19.4,42,30.67,10.0,SW,19.6,24.2,N/A,,Clear,220,2013-10-07 16:10:00
10:29 AM,41.0,17.6,39,30.66,10.0,SW,21.9,26.5,N/A,,Clear,230,2013-10-07 16:29:00
10:49 AM,42.8,17.6,36,30.66,10.0,SW,18.4,25.3,N/A,,Clear,230,2013-10-07 16:49:00
10:58 AM,42.8,17.6,36,30.66,10.0,SW,18.4,25.3,N/A,,Clear,230,2013-10-07 16:58:00
11:29 AM,44.6,15.8,31,30.66,10.0,SW,18.4,25.3,N/A,,Clear,220,2013-10-07 17:29:00
11:48 AM,44.6,17.6,34,30.65,10.0,SW,23.0,27.6,N/A,,Clear,230,2013-10-07 17:48:00
12:09 PM,46.4,15.8,29,30.65,10.0,SW,23.0,29.9,N/A,,Clear,230,2013-10-07 18:09:00
12:29 PM,46.4,17.6,32,30.64,10.0,WSW,25.3,31.1,N/A,,Clear,240,2013-10-07 18:29:00
12:43 PM,48.2,17.6,30,30.64,10.0,WSW,23.0,-,N/A,,Clear,240,2013-10-07 18:43:00
1:08 PM,50.0,14.0,24,30.63,10.0,WSW,19.6,-,N/A,,Clear,250,2013-10-07 19:08:00
1:29 PM,51.8,17.6,26,30.62,10.0,SW,21.9,27.6,N/A,,Clear,230,2013-10-07 19:29:00
1:48 PM,51.8,15.8,24,30.62,10.0,WSW,20.7,26.5,N/A,,Clear,240,2013-10-07 19:48:00
2:09 PM,51.8,14.0,22,30.61,10.0,SW,17.3,27.6,N/A,,Clear,230,2013-10-07 20:09:00
2:30 PM,53.6,14.0,21,30.60,10.0,WSW,21.9,29.9,N/A,,Clear,240,2013-10-07 20:30:00
2:48 PM,51.8,6.8,16,30.60,10.0,West,25.3,31.1,N/A,,Clear,280,2013-10-07 20:48:00
3:10 PM,51.8,3.2,14,30.60,10.0,West,21.9,29.9,N/A,,Clear,260,2013-10-07 21:10:00
3:28 PM,53.6,6.8,15,30.60,10.0,SW,20.7,27.6,N/A,,Clear,230,2013-10-07 21:28:00
3:49 PM,53.6,8.6,16,30.60,10.0,WSW,18.4,27.6,N/A,,Clear,250,2013-10-07 21:49:00
4:09 PM,53.6,8.6,16,30.59,10.0,WSW,19.6,25.3,N/A,,Clear,240,2013-10-07 22:09:00
4:30 PM,51.8,6.8,16,30.58,10.0,West,19.6,-,N/A,,Clear,280,2013-10-07 22:30:00
4:48 PM,53.6,8.6,16,30.58,10.0,WSW,16.1,21.9,N/A,,Clear,250,2013-10-07 22:48:00
5:10 PM,50.0,8.6,19,30.58,10.0,WSW,16.1,-,N/A,,Clear,240,2013-10-07 23:10:00
5:28 PM,50.0,8.6,19,30.58,10.0,West,17.3,25.3,N/A,,Clear,270,2013-10-07 23:28:00
5:50 PM,46.4,10.4,23,30.58,10.0,SW,19.6,26.5,N/A,,Clear,230,2013-10-07 23:50:00
6:09 PM,46.4,12.2,25,30.58,10.0,SW,17.3,-,N/A,,Clear,230,2013-10-08 00:09:00
6:30 PM,44.6,14.0,29,30.58,10.0,SW,17.3,-,N/A,,Clear,230,2013-10-08 00:30:00
6:50 PM,44.6,14.0,29,30.58,10.0,SW,17.3,-,N/A,,Clear,220,2013-10-08 00:50:00
7:10 PM,42.8,17.6,36,30.58,10.0,SW,15.0,-,N/A,,Clear,230,2013-10-08 01:10:00
7:29 PM,42.8,17.6,36,30.58,10.0,SW,17.3,-,N/A,,Clear,230,2013-10-08 01:29:00
7:50 PM,42.8,17.6,36,30.57,10.0,WSW,24.2,-,N/A,,Clear,240,2013-10-08 01:50:00
8:09 PM,42.8,17.6,36,30.58,10.0,SW,21.9,-,N/A,,Clear,230,2013-10-08 02:09:00
8:30 PM,42.8,19.4,39,30.57,10.0,SW,24.2,-,N/A,,Clear,230,2013-10-08 02:30:00
8:50 PM,41.0,19.4,42,30.57,10.0,SW,25.3,-,N/A,,Clear,230,2013-10-08 02:50:00
9:10 PM,41.0,23.0,49,30.56,10.0,WSW,25.3,-,N/A,,Clear,240,2013-10-08 03:10:00
9:30 PM,41.0,21.2,45,30.56,10.0,SW,21.9,-,N/A,,Clear,230,2013-10-08 03:30:00
9:49 PM,41.0,19.4,42,30.56,10.0,SW,21.9,-,N/A,,Clear,230,2013-10-08 03:49:00
10:10 PM,41.0,21.2,45,30.56,10.0,WSW,25.3,-,N/A,,Clear,240,2013-10-08 04:10:00
10:30 PM,41.0,21.2,45,30.55,10.0,SW,23.0,-,N/A,,Clear,230,2013-10-08 04:30:00
10:49 PM,41.0,21.2,45,30.55,10.0,WSW,24.2,-,N/A,,Clear,240,2013-10-08 04:49:00
11:10 PM,41.0,23.0,49,30.54,10.0,WSW,24.2,-,N/A,,Clear,250,2013-10-08 05:10:00
11:30 PM,39.2,23.0,52,30.53,10.0,WSW,21.9,-,N/A,,Clear,250,2013-10-08 05:30:00
11:50 PM,37.4,23.0,56,30.53,10.0,WSW,21.9,-,N/A,,Clear,250,2013-10-08 05:50:00